weather.gov     
National Weather Service

Terminal Aerodrome Forecast
NWS Homepage
This page is being discontinued on March 12, 2014.
The same data is available at this site. Please update your bookmarks.
Thank you, and we apologize for the inconvenience.
Please send an email to SR-SRH.Webmaster@noaa.gov with any concerns.


Current Version
Previous Version:    01  02  03  04  05  06  07  08  09  10  11  12  13  14  15  16  17  18  19  20  21  22  23  24  25  26  27  28  29  30  
   31  32  33  34  35  
[Printable]
999
FTUS41 KGYX 020500
TAFLEB
TAF
KLEB 020538Z 0206/0306 19005KT 5SM BR SCT100 BKN200
     FM020900 00000KT 3SM BR BKN002 OVC200
     FM021300 19004KT P6SM SCT100 BKN200
     FM021800 18006KT P6SM SCT050 SCT100
     FM030000 00000KT P6SM SCT120=


U.S. Dept. of Commerce
NOAA National Weather Service
1325 East West Highway
Silver Spring, MD 20910
E-mail: w-nws.webmaster@noaa.gov
Page last modified: May 16, 2007
NATIONAL WEATHER SERVICE: for Safety, for Work, for Fun - FOR LIFE